Regional Weather Roundup
Issued by NWS

Home | Current Version | Previous Version | Graphics & Text | Print | Product List | Glossary On
Versions: 1 2 3 4 5 6 7 8 9 10 11 12 13 14 15 16 17 18 19 20 21 22 23 24 25 26 27 28 29 30 31 32 33 34 35 36 37 38 39 40 41 42 43 44 45 46 47 48 49 50
000
ASUS43 KIND 010909
RWRIN

WEATHER ROUNDUP FOR INDIANA
NATIONAL WEATHER SERVICE INDIANAPOLIS IN
500 AM EDT FRI AUG 01 2014

NOTE: "FAIR" INDICATES FEW OR NO CLOUDS BELOW 12,000 FEET WITH NO
SIGNIFICANT WEATHER AND/OR OBSTRUCTIONS TO VISIBILITY.

* - STATION DOES NOT REPORT WEATHER SUCH AS PRECIPITATION OR FOG.

+ - STATION NOT QUALITY CONTROLLED BY THE NATIONAL WEATHER SERVICE.
    USE DATA WITH CAUTION...ESPECIALLY DEWPOINT AND RELATIVE
    HUMIDITY OBSERVATIONS.

INZ001>003-010>013-019-020-011000-
NORTHWEST INDIANA

CITY           SKY/WX    TMP DP  RH WIND       PRES   REMARKS
GARY /AIRPORT/ CLEAR     61  59  93 CALM      30.07R
KNOX *+        CLEAR     57  55  91 CALM      30.07S
LA PORTE +     FOG       58  58 100 CALM      30.08S VSB 1
MICHIGAN CITY+ CLEAR     61  61 100 CALM      30.07S FOG
MONTICELLO +   CLEAR     58  58  98 CALM      30.07S
RENSSELAER +   CLEAR     55  55 100 SW3       30.08S FOG
VALPARAISO     CLEAR     61  59  93 CALM      30.08R

$$

LMZ046-743>745-011000-
SOUTHERN LAKE MICHIGAN

STATION/POSITION TIME  TEMP WIND        PRES
                       AIR  DIR/SP/G
                 (UTC) (F)  (DEG/KT/KT) (MB)
MICHIGAN CITY    0900   67  180/  6/  7   N/A

$$

INZ004-005-014>016-021>024-011000-
NORTH CENTRAL INDIANA

CITY           SKY/WX    TMP DP  RH WIND       PRES   REMARKS
GOSHEN         MOCLDY    64  60  87 CALM      30.07S
LOGANSPORT +   CLEAR     55  54  94 CALM      30.09R
PERU/GRISSOM   CLEAR     60  60 100 S3        30.08S
ROCHESTER +    CLEAR     63  59  88 CALM      30.08S
SOUTH BEND     PTCLDY    64  60  87 CALM      30.08R
WARSAW +       CLEAR     61  59  94 CALM      30.08S

$$

INZ006>009-017-018-025>027-011000-
NORTHEAST INDIANA

CITY           SKY/WX    TMP DP  RH WIND       PRES   REMARKS
ANGOLA *+      MOCLDY    61  61 100 CALM      30.08R
AUBURN +       CLEAR     63  59  88 CALM      30.09R
FORT WAYNE     PTCLDY    60  57  89 SW5       30.09R
HUNTINGTON +   CLEAR     60  58  94 SW3       30.09S

$$

INZ028-029-035-036-043>045-051>053-011000-
WEST CENTRAL INDIANA

CITY           SKY/WX    TMP DP  RH WIND       PRES   REMARKS
GREENCASTLE +  CLEAR     59  59 100 CALM      30.10R
LAFAYETTE      CLEAR     58  57  97 CALM      30.08R
TERRE HAUTE    CLEAR     58  56  93 CALM      30.08S

$$

INZ030>032-037>040-046>048-054>057-064-065-011000-
CENTRAL INDIANA

CITY           SKY/WX    TMP DP  RH WIND       PRES   REMARKS
CP ATTERBURY + CLEAR     57  55  94 CALM      30.10S FOG
INDIANAPOLIS   CLEAR     62  59  90 SW5       30.09R
-EAGLE CREEK   CLEAR     62  59  90 CALM      30.09R FOG
KOKOMO *+      CLEAR     57  55  94 CALM      30.09S
MARION +       CLEAR     55  54  97 CALM      30.10S FOG
MT COMFORT *+    N/A     57 N/A N/A CALM      30.10R VSB 1
SHELBYVILLE    CLEAR     60  57  89 CALM      30.09R
ZIONSVILLE +   FOG       58  55  90 CALM      30.10S VSB 3/4

$$

INZ033-034-041-042-049-050-058-059-011000-
EAST CENTRAL INDIANA

CITY           SKY/WX    TMP DP  RH WIND       PRES   REMARKS
MUNCIE         CLEAR     60  56  86 CALM      30.09S

$$

INZ060-061-067>069-081>083-085>088-011000-
SOUTHWEST INDIANA

CITY           SKY/WX    TMP DP  RH WIND       PRES   REMARKS
EVANSVILLE     MOCLDY    65  61  87 SW5       30.08R
WASHINGTON +   FOG       59  59 100 CALM      30.08R VSB 1/4

$$

INZ062-063-066-070>080-084-089>092-011000-
SOUTH CENTRAL AND SOUTHEAST INDIANA

CITY           SKY/WX    TMP DP  RH WIND       PRES   REMARKS
BEDFORD +      CLEAR     61  59  94 CALM      30.09
BLOOMINGTON    CLEAR     58  56  93 CALM      30.09S FOG
NORTH VERNON + FOG       59  59 100 CALM      30.10  VSB 1
SEYMOUR +      CLEAR     55  50  82 CALM      30.08S

$$




USA.gov is the U.S. government's official web portal to all federal, state and local government web resources and services.